Change the Weather History Date:

Sunday, August 11, 2013

  Actual Average (YMML) Record (YMML)
Temperature  
Mean Temperature 52 °F -  
Max Temperature 63 °F 55 °F 64 °F (2007)
Min Temperature 42 °F 42 °F 37 °F (2005)
Degree Days  
Heating Degree Days 12    
Growing Degree Days 2 (Base 50)    
Moisture  
Dew Point 45 °F    
Average Humidity 72    
Maximum Humidity 93    
Minimum Humidity 45    
Precipitation  
Precipitation 0.00 in - - ()
Sea Level Pressure  
Sea Level Pressure 29.86 in    
Wind  
Wind Speed 11 mph ()    
Max Wind Speed 22 mph    
Max Gust Speed -    
Visibility 6.2 miles    
Events      
Averages and records for this station are not official NWS values.
T = Trace of Precipitation, MM = Missing Value Source: Averaged Metar Reports

Daily Weather History Graph

Daily Weather History Graph

Search for Another Location

Airport or City:

Trip Planner

Search our weather history database for the weather conditions in past years. The results will help you decide how hot, cold, wet, or windy it might be!

Date:

Astronomy

Aug. 11, 2013 Rise Set
Actual Time 7:12 AM AEST 5:42 PM AEST
Civil Twilight 6:44 AM AEST 6:10 PM AEST
Nautical Twilight 6:13 AM AEST 6:41 PM AEST
Astronomical Twilight 5:43 AM AEST 7:12 PM AEST
Moon 9:04 AM AEST (8/11) 10:05 PM AEST (8/11)
Length of Visible Light 11h 25m
Length of Day
10h 30m
Waxing Crescent, 17% of the Moon is Illuminated
Aug 11
Waxing Crescent
Aug 14
First Quarter
Aug 21
Full
Aug 28
Last Quarter
Sep 5
New

Hourly Weather History & Observations

Time (AEST) Temp. Windchill Dew Point Humidity Pressure Visibility Wind Dir Wind Speed Gust Speed Precip Events Conditions
12:00 AM 48 °F - 42 °F 72% 30.00 in - NNW 10.4 mph - -  
12:00 AM 48.2 °F - 42.8 °F 82% 29.98 in 6.2 mi NNW 10.4 mph - N/A   Unknown
12:30 AM 48.2 °F - 42.8 °F 82% 29.98 in 6.2 mi NNW 10.4 mph - N/A   Unknown
1:00 AM 48.2 °F - 42.8 °F 82% 29.98 in 6.2 mi NNW 10.4 mph - N/A   Unknown
1:30 AM 48.2 °F - 41.0 °F 76% 29.98 in 6.2 mi NNW 9.2 mph - N/A   Unknown
2:00 AM 44.6 °F 40.2 °F 41.0 °F 87% 29.98 in 6.2 mi NNE 8.1 mph - N/A   Unknown
2:30 AM 44.6 °F 41.4 °F 39.2 °F 81% 29.98 in 6.2 mi North 5.8 mph - N/A   Unknown
3:00 AM 43 °F - 39 °F 79% 29.97 in - North 4.6 mph - -  
3:00 AM 42.8 °F 40.1 °F 39.2 °F 87% 29.95 in 6.2 mi North 4.6 mph - N/A   Unknown
3:30 AM 48.2 °F - 41.0 °F 76% 29.95 in 6.2 mi North 11.5 mph - N/A   Unknown
4:00 AM 48.2 °F - 41.0 °F 76% 29.95 in 6.2 mi North 12.7 mph - N/A   Unknown
4:30 AM 48.2 °F - 41.0 °F 76% 29.95 in 6.2 mi North 12.7 mph - N/A   Unknown
5:00 AM 48.2 °F - 41.0 °F 76% 29.95 in 6.2 mi North 11.5 mph - N/A   Unknown
5:30 AM 48.2 °F - 41.0 °F 76% 29.95 in 6.2 mi North 10.4 mph - N/A   Unknown
6:00 AM 42.8 °F 38.0 °F 37.4 °F 81% 29.95 in 6.2 mi North 8.1 mph - N/A   Unknown
6:30 AM 44.6 °F 38.8 °F 41.0 °F 87% 29.95 in 6.2 mi North 11.5 mph - N/A   Unknown
7:00 AM 46.4 °F 40.7 °F 41.0 °F 81% 29.95 in 6.2 mi North 12.7 mph - N/A   Unknown
7:30 AM 46.4 °F 41.5 °F 41.0 °F 81% 29.95 in 6.2 mi North 10.4 mph - N/A   Unknown
8:00 AM 50.0 °F - 44.6 °F 82% 29.95 in 6.2 mi NNW 10.4 mph - N/A   Scattered Clouds
8:30 AM 51.8 °F - 44.6 °F 76% 29.95 in 6.2 mi North 12.7 mph - N/A   Overcast
9:00 AM 55 °F - 46 °F 62% 29.95 in - NNW 16.1 mph - -  
9:00 AM 55.4 °F - 46.4 °F 72% 29.95 in 6.2 mi NNW 16.1 mph - N/A   Unknown
9:30 AM 57.2 °F - 46.4 °F 67% 29.95 in 6.2 mi NNW 18.4 mph - N/A   Unknown
10:00 AM 59.0 °F - 46.4 °F 63% 29.92 in 6.2 mi NNW 18.4 mph - N/A   Unknown
10:30 AM 59.0 °F - 46.4 °F 63% 29.92 in 6.2 mi NNW 18.4 mph - N/A   Unknown
11:00 AM 60.8 °F - 46.4 °F 59% 29.92 in 6.2 mi NNW 19.6 mph - N/A   Unknown
11:30 AM 60.8 °F - 46.4 °F 59% 29.89 in 6.2 mi NNW 20.7 mph - N/A   Unknown
12:00 PM 62 °F - 47 °F 48% 29.90 in - NNW 21.9 mph - -  
12:00 PM 62.6 °F - 48.2 °F 59% 29.89 in 6.2 mi NNW 21.9 mph - N/A   Unknown
12:30 PM 62.6 °F - 46.4 °F 55% 29.86 in 6.2 mi NNW 20.7 mph - N/A   Scattered Clouds
1:00 PM 62.6 °F - 46.4 °F 55% 29.86 in 6.2 mi NNW 21.9 mph - N/A   Scattered Clouds
1:30 PM 62.6 °F - 46.4 °F 55% 29.83 in 6.2 mi NNW 20.7 mph - N/A   Unknown
2:00 PM 62.6 °F - 46.4 °F 55% 29.83 in 6.2 mi NNW 21.9 mph - N/A   Unknown
2:30 PM 62.6 °F - 46.4 °F 55% 29.80 in 6.2 mi NNW 19.6 mph - N/A   Unknown
3:00 PM 63 °F - 47 °F 45% 29.82 in - NNW 17.3 mph - -  
3:00 PM 62.6 °F - 46.4 °F 55% 29.80 in 6.2 mi NNW 17.3 mph - N/A   Unknown
3:30 PM 62.6 °F - 46.4 °F 55% 29.80 in 6.2 mi NNW 19.6 mph - N/A   Unknown
4:00 PM 62.6 °F - 46.4 °F 55% 29.80 in 6.2 mi NNW 19.6 mph - N/A   Unknown
4:30 PM 60.8 °F - 46.4 °F 59% 29.80 in 6.2 mi NNW 17.3 mph - N/A   Unknown
5:00 PM 60.8 °F - 46.4 °F 59% 29.77 in 6.2 mi NNW 15.0 mph - N/A   Unknown
5:30 PM 57.2 °F - 46.4 °F 67% 29.77 in 6.2 mi NNW 11.5 mph - N/A   Unknown
6:00 PM 55 °F - 46 °F 64% 29.78 in - North 8.1 mph - -  
6:00 PM 55.4 °F - 46.4 °F 72% 29.77 in 6.2 mi North 8.1 mph - N/A   Unknown
6:30 PM 55.4 °F - 46.4 °F 72% 29.77 in 6.2 mi NNE 10.4 mph - N/A   Scattered Clouds
7:00 PM 53.6 °F - 46.4 °F 77% 29.77 in 6.2 mi North 11.5 mph - N/A   Scattered Clouds
7:30 PM 51.8 °F - 46.4 °F 82% 29.77 in 6.2 mi North 10.4 mph - N/A   Scattered Clouds
8:00 PM 51.8 °F - 48.2 °F 88% 29.74 in 6.2 mi NNE 12.7 mph - N/A   Unknown
8:30 PM 51.8 °F - 46.4 °F 82% 29.74 in 6.2 mi NNE 9.2 mph - N/A   Unknown
9:00 PM 51 °F - 47 °F 83% 29.75 in - NNE 8.1 mph - -   Overcast
9:00 PM 51.8 °F - 48.2 °F 88% 29.74 in 6.2 mi NNE 8.1 mph - N/A   Scattered Clouds
9:30 PM 50.0 °F - 46.4 °F 87% 29.71 in 6.2 mi NNE 6.9 mph - N/A   Scattered Clouds
10:00 PM 48.2 °F - 46.4 °F 93% 29.71 in 6.2 mi NNE 5.8 mph - N/A   Unknown
10:30 PM 48.2 °F - 46.4 °F 93% 29.68 in 6.2 mi NNE 6.9 mph - N/A   Unknown
11:00 PM 50.0 °F - 46.4 °F 87% 29.68 in 6.2 mi ENE 4.6 mph - N/A   Scattered Clouds
11:30 PM 51.8 °F - 48.2 °F 88% 29.65 in 6.2 mi NNE 6.9 mph - N/A   Overcast